Regional Weather Roundup
Issued by NWS Lake Charles, LA

Home | Current Version | Previous Version | Text Only | Print | Product List | Glossary On
Versions: 1 2 3 4 5 6 7 8 9 10 11 12 13 14 15 16 17 18 19 20 21 22 23 24 25 26 27 28 29 30 31 32 33 34 35 36 37 38 39 40 41 42 43 44 45 46 47 48 49 50
000
ASUS44 KLCH 241610
RWRLCH
REGIONAL WEATHER ROUNDUP
NATIONAL WEATHER SERVICE LAKE CHARLES LA
1100 AM CDT TUE MAY 24 2016

Note: "fair" indicates few or no clouds below 12,000 feet with no
significant weather and/or obstructions to visibility.


ACROSS SOUTHEAST TEXAS

CITY           SKY/WX    TMP DP  RH WIND       PRES   REMARKS
BEAUMONT       CLOUDY    83  74  74 SE14      30.01R
BEAUMONT CITY  CLOUDY    84  73  69 SE9G16    30.02R
ORANGE         PTSUNNY   82  71  69 S9        30.04R
JASPER         CLOUDY    80  71  75 SE7       30.05R
$$

ACROSS CENTRAL LOUISIANA

CITY           SKY/WX    TMP DP  RH WIND       PRES   REMARKS
LEESVILLE      CLOUDY    82  71  69 SE9       30.05R
FULLERTON      NOT AVBL
ALEXANDRIA INT PTSUNNY   83  70  64 SE13      30.05R
ESLER FIELD    MOSUNNY   85  68  56 SE9       30.07R
DERIDDER       PTSUNNY   82  70  66 SE8       30.06R
OAKDALE        PTSUNNY   82  72  70 SE3       30.05F
OPELOUSAS      PTSUNNY   81  70  68 SE12      30.06S
$$

ACROSS SOUTHWEST AND SOUTH CENTRAL LOUISIANA

CITY           SKY/WX    TMP DP  RH WIND       PRES   REMARKS
SULPHUR        MOSUNNY   84  74  71 SE15      30.04S
LAKE CHARLES   PTSUNNY   83  72  69 SE15      30.03S
CHENNAULT INT  MOSUNNY   82  73  74 SE10G20   30.04R
CAMERON PHI    NOT AVBL
DEQUINCY       CLOUDY    82  72  71 SE7       30.03R
JENNINGS       PTSUNNY   82  72  69 SE8       30.05S
LAFAYETTE      PTSUNNY   82  70  66 S7        30.07R
NEW IBERIA     CLOUDY    82  70  66 S12       30.07R
ABBEVILLE      CLOUDY    82  73  76 E9G16     30.07R
PATTERSON      PTSUNNY   83  73  72 SE7       30.08R
SALT POINT       N/A     82  73  74 SE10      30.05S
$$

SELECTED SITES ACROSS THE REGION

CITY           SKY/WX    TMP DP  RH WIND       PRES   REMARKS
HOUSTON BUSH   PTSUNNY   82  74  76 SE10      29.99R
HOUSTON HOBBY  PTSUNNY   85  74  69 SE14      29.98R
GALVESTON      PTSUNNY   82  78  88 SE17G23   30.00R
COLLEGE STAT   CLOUDY    80  73  79 S10       29.99R
CONROE         CLOUDY    83  73  72 SE10      30.01R
HUNTSVILLE     CLOUDY    80  71  74 VRB3      30.02R
LUFKIN         PTSUNNY   80  72  76 SE8       30.02R
SHREVEPORT     PTSUNNY   82  70  66 SE8       30.04R
MONROE         SUNNY     83  65  54 S10       30.08F
NATCHEZ MS     SUNNY     81  63  54 SE3       30.09F
BATON ROUGE    PTSUNNY   82  67  60 E7        30.08R
N.O. INTL ARPT MOSUNNY   85  68  56 S9        30.09S
SLIDELL        MOSUNNY   82  66  58 SE8       30.10S
$$

MARINE REPORTS

STATION/POSITION TIME  SKY/WX   TEMP    WIND        PRES    VSBY
                                AIR SEA DIR/SP/G
                 (UTC)          (F)     (DEG/KT/KT) (MB)    (MI)
BUOY 30 S HIGH I 1550            79 79  130/ 16/ 17 1015.3R
WVE H/P(F/S)=  3/ 5

SEA RIM ST PARK  1600            80     130/ 13/ 15 1017.1R
PORT ARTHUR      1500               77  140/  8/ 14 1016.2R
SABINE PASS N    1500            79 80  140/ 16/ 19 1017.3R
TEXAS POINT      NOT AVBL
CALCASIEU PASS   1500            79 80  150/ 13/ 17 1015.8R
LK CHARLES BEACH 1500            81 77              1017.3R
MARSH ISLAND     1500            78                   N/A
FRESH WATER LOCK 1500            80 80  120/ 11/ 14 1018.1R
AMERADA PASS     1500            80 74  120/  5/  8 1017.9R
$$



USA.gov is the U.S. government's official web portal to all federal, state and local government web resources and services.